Regional Weather Roundup
Issued by NWS State College, PA

Home | Current Version | Previous Version | Graphics & Text | Print | Product List | Glossary On
Versions: 1 2 3 4 5 6 7 8 9 10 11 12 13 14 15 16 17 18 19 20 21 22 23 24 25 26 27 28 29 30 31 32 33 34 35 36 37 38 39 40 41 42 43 44 45 46 47 48 49 50
000
ASUS41 KCTP 170503
RWRCTP

REGIONAL WEATHER ROUNDUP
NATIONAL WEATHER SERVICE STATE COLLEGE PA
1200 AM EST SUN DEC 17 2017

Note: "fair" indicates few or no clouds below 12,000 feet with no
significant weather and/or obstructions to visibility.

* = STATION THAT DOES NOT REPORT PRECIPITATION /E.G. RAIN...SNOW...ETC/
    THUNDER OR FOG.

PAZ002>004-007>009-013>016-020>023-029>032-170600-
WESTERN PENNSYLVANIA

CITY           SKY/WX    TMP DP  RH WIND       PRES   REMARKS
ERIE           CLOUDY    29  27  92 CALM      30.16S FOG
MEADVILLE      FOG       26  25  96 CALM      30.12S VSB 1/2
FRANKLIN*      CLEAR     25  25 100 CALM      30.12S FOG
NEW CASTLE     FAIR      23  21  92 CALM      30.14S FOG
BEAVER COUNTY  NOT AVBL
BUTLER*        CLEAR     22  21  96 CALM      30.14R
PITTSBURGH INT PTCLDY    35  25  66 S5        30.13R
PITTSBURGH     CLEAR     34  23  64 S10       30.14R
INDIANA*       MOCLDY    21  21 100 CALM      30.17R
LATROBE        CLEAR     30  25  80 S7        30.16R
WASHINGTON CO* CLEAR     30  25  81 SW7       30.18R
$$

PAZ004>006-010>012-017>019-024>028-033>037-041-042-045-046-049>053-170600-
CENTRAL PENNSYLVANIA

CITY           SKY/WX    TMP DP  RH WIND       PRES   REMARKS
BRADFORD       CLOUDY    28  27  96 CALM      30.08R
DUBOIS         CLEAR     27  23  85 CALM      30.10R FOG
CLEARFIELD     CLEAR     27  26  96 CALM      30.12S
JOHNSTOWN      CLOUDY    36  24  62 W8        30.09R
ALTOONA        CLEAR     32  24  72 CALM      30.13R
STATE COLLEGE  CLEAR     31  25  77 CALM      30.13S
WILLIAMSPORT   CLOUDY    35  28  75 E5        30.17R
SELINSGROVE    CLOUDY    33  29  85 CALM      30.18R
FT INDIANTOWN  MOCLDY    33  32  95 CALM      30.17R
CAPITAL CITY   CLEAR     29  23  78 CALM      30.18R
HARRISBURG     CLEAR     30  26  85 E5        30.17R
YORK           CLEAR     22  21  96 CALM      30.17R
$$

PAZ038>040-043-044-047-048-054-055-060>062-067>071-170600-
EASTERN PENNSYLVANIA

CITY           SKY/WX    TMP DP  RH WIND       PRES   REMARKS
SCRANTON       CLOUDY    28  21  75 CALM      30.17R
MOUNT POCONO   CLOUDY    24  22  91 NW5       30.10R
ALLENTOWN      CLOUDY    35  25  66 E5        30.19R
QUAKERTOWN*    CLOUDY    34  27  75 CALM      30.20R
READING        CLOUDY    37  29  72 CALM      30.17R
LANCASTER      PTCLDY    33  27  78 CALM      30.18R
COATESVILLE    CLOUDY    36  25  64 S3        30.19R
POTTSTOWN      CLOUDY    34  27  75 CALM      30.20R
BLUE BELL      CLOUDY    32  28  86 CALM      30.21R
DOYLESTOWN     CLOUDY    35  26  69 CALM      30.19R
WILLOW GROVE   NOT AVBL
NORTH PHILA    CLOUDY    38  28  67 W5        30.22R
PHILADELPHIA   CLOUDY    37  29  72 SW3       30.21R
$$



USA.gov is the U.S. government's official web portal to all federal, state and local government web resources and services.